OKEAN 1

导读

OKEAN 1(海洋1号)是独联体(CIS)所属的俄罗斯“海洋”系列对地观测卫星,于1988年7月5日发射升空,属于该系列第三代O1批次卫星。它主要用于观测海表温度、风速、海洋水色、冰覆盖等海洋环境参数,运行于近圆轨道,配备多通道扫描仪、微波辐射计等载荷,为海洋研究和环境监测提供了重要数据支撑。

Basic Information
目录编号:
19274
目录名称:
OKEAN 1
国际标识:
1988-056A
轨道中心:
EARTH
卫星名称:
OKEAN 1
卫星全名:
--
卫星状态:
在轨 (已飞行13940 天)
发射日期:
1988-07-05 UTC
国别 :
俄罗斯(独联体) (CIS)
星等 :
--
Orbit Information
数据来源 国际轨道数据 AOE轨道数据
星历时间 2026-09-02T21:11:03+0800
1天前
查看轨道信息
2026-09-04T02:00:00+0800
7小时前
查看轨道信息
半长轴 6840.077km 6840.05km
偏心率 0.0010434 0.0010566
轨道倾角 82.466° 82.467°
近地点辐角 264.550° 258.761°
升交点赤经 82.838° 81.612°
平近点角 95.455° 250.372°
近地点 454.803km 454.685km
远地点 469.077km 469.141km
周期 93.832分钟 93.831分钟
每日圈数 15.346569 15.346662
Detailed Information
使用方式:
暂无
2D Orbit Map
3D Orbit Map
Orbit Altitude Analysis Chart
Orbit Inclination Analysis Chart
Orbit Comprehensive Analysis Chart
View Comprehensive Chart
Conjunction Data List
Event ID Objects TCA Miss Dist (km) Collision Risk Probability Collision Risk Index (CRI) Action
CDM_260903-050301-927406-167123
OKEAN 1 (19274)
2026-09-03T
05:03:42+0000
1.718 km
极远距离
3.568017E-6 低风险 0.46
CDM_260905-132301-927404-857121
OKEAN 1 (19274)
2026-09-05T
13:23:27+0000
1.801 km
极远距离
2.471145E-6 低风险 0.43
CDM_260831-131901-927406-949728
OKEAN 1 (19274)
2026-08-31T
13:19:59+0000
2.179 km
极远距离
2.368621E-6 低风险 0.42
CDM_260903-041501-927405-258821
OKEAN 1 (19274)
2026-09-03T
04:15:08+0000
2.845 km
极远距离
8.830685E-7 极低风险 0.34
CDM_260903-171401-927405-767723
OKEAN 1 (19274)
2026-09-03T
17:14:44+0000
2.574 km
极远距离
8.250506E-7 极低风险 0.33